Location: Newark
(58.9986°N, 38.5006°E)
Time: 19:05:35
(UTC+00:00)

ISS - Pass Details

Date: 10 March 2021
Orbit: 418 x 422 km, 51.6° (Epoch: 17 April)

Event Time Altitude Azimuth Distance (km) Brightness Sun altitude
Exits shadow 01:39:35 11° 167° (SSE) 1,458 -1.1 -18.1°
Drops below altitude 10° 01:39:45 10° 165° (SSE) 1,498 -1.0 -18.1°
Sets 01:42:25 0° 142° (SE) 2,350 0.2 -17.8°
